www.pogodaiklimat.ru

Погода и климат >> Архив погоды >> Эстония >> Тарту


АРХИВ ПОГОДЫ в Тарту

Время (UTC), дата Ветер
(напр.,м/с)
 
Видим.   Явления Облачность Т
(С)
Тd
(С)
f
(%)
Тe
(С)
Тes
(С)
Комфортность P
(гПа)
Po
(гПа)
Тmin
(С)
Tmax
(С)
R
(мм)
R24
(мм)
S
(см)
01 14.07 штиль 0 13 км н/о +9.2 +9.0 99 +8 +8 холодно 1010.4 1001.8
02 14.07 З 1 4700 м н/о +8.4 +8.2 99 +7 +7 очень
холодно
1010.5 1001.9
03 14.07 ЮВ 1 11 км 5/3
[]
+7.8 +7.7 99 +7 +7 очень
холодно
1010.6 1002.0
04 14.07 штиль 0 27 км н/о +10.6 +10.0 96 +10 +10 холодно 1010.5 1002.0
05 14.07 СЗ 1 35 км н/о +12.8 +11.0 89 +13 +13 прохладно 1010.6 1002.2
06 14.07 З 1 35 км 8/3 600 м
[St As op Ci ing]
+13.4 +7.7 68 +14 +17 прохладно 1010.8 1002.4 +7.7 +14.9
07 14.07 В 1 35 км н/о +13.9 +12.6 92 +14 +14 холодно 1011.1 1002.6
08 14.07 В 1 35 км н/о +15.7 +12.0 79 +16 +16 прохладно 1011.2 1002.9
09 14.07 З 1 35 км 9/8 1000 м
[Cu Sc Ac trans Cc]
+17.6 +7.7 52 +19 +20 по сезону 1011.0 1002.7
10 14.07 В 2 18 км н/о +14.1 +10.2 77 +14 +14 очень
холодно
1011.3 1002.9
11 14.07 В 2 35 км н/о +16.6 +9.0 61 +17 +17 холодно 1010.9 1002.6 0.6
12 14.07 ЮВ 1 35 км {гроза, ливн. осадки} 9/5 1000 м
[Cb cap Ac lent Ci ing]
+18.6 +7.7 49 +20 +25 по сезону 1010.5 1002.3 0.6
13 14.07 С 3 35 км н/о +15.6 +10.9 74 +15 +15 холодно 1010.8 1002.5
14 14.07 СВ 2 35 км н/о +15.7 +10.3 70 +16 +16 прохладно 1011.0 1002.7
15 14.07 ЮЗ 1 35 км {гроза} 10/10 300 м
[Cb cap As op]
+14.9 +7.8 62 +15 +18 холодно 1011.4 1003.1
16 14.07 З 1 35 км н/о +14.7 +11.5 81 +15 +15 прохладно 1011.2 1002.8
17 14.07 З 1 35 км н/о +15.8 +11.7 77 +17 +17 по сезону 1011.2 1002.8
18 14.07 С 2 35 км {гроза, ливн. осадки} 9/3 1000 м
[St Ac und]
+15.1 +13.1 88 +15 +15 прохладно 1011.3 1003.0 +13.1 +19.2
19 14.07 штиль 0 35 км н/о +13.0 +12.1 94 +12 +12 прохладно 1011.4 1003.0
20 14.07 З 1 35 км н/о +12.4 +12.1 98 +12 +12 прохладно 1011.6 1003.2
21 14.07 штиль 0 14 км местами туман поземный 9/3 1000 м
[St Ac und]
+11.7 +11.6 99 +11 +11 холодно 1012.0 1003.5
22 14.07 СЗ 1 13 км н/о +11.6 +11.3 98 +11 +11 по сезону 1012.0 1003.5
23 14.07 СЗ 1 500 м н/о +10.8 +10.6 99 +10 +10 прохладно 1011.9 1003.4
00 15.07 С 1 200 м местами туман поземный 9/4 50 м
[St Ci ing]
+9.5 +9.4 99 +9 +9 холодно 1012.0 1003.5
01 15.07 СЗ 1 200 м н/о +8.3 +8.1 99 +7 +7 очень
холодно
1012.0 1003.4
02 15.07 З 1 200 м н/о +8.1 +8.0 99 +7 +7 очень
холодно
1012.0 1003.4
03 15.07 С 2 35 км 9/3 50 м
[St Ci ing]
+8.8 +7.6 92 +7 +7 очень
холодно
1012.1 1003.6
04 15.07 СЗ 1 35 км н/о +9.5 +9.0 97 +9 +9 очень
холодно
1012.1 1003.6
05 15.07 С 1 35 км н/о +12.7 +9.5 81 +13 +13 прохладно 1011.9 1003.4
06 15.07 СВ 1 35 км 9/1
[]
+15.4 +7.6 60 +16 +17 по сезону 1011.8 1003.4 +7.6 +15.7
07 15.07 З 1 35 км н/о +16.0 +6.9 55 +17 +17 прохладно 1011.8 1003.4
08 15.07 З 1 35 км н/о +17.0 +5.2 46 +18 +18 по сезону 1011.6 1003.3
09 15.07 СЗ 2 35 км 3/1 600 м
[Cu Sc Ac trans Ci ing]
+17.9 +7.6 51 +18 +30 опасность
простуды
1011.5 1003.2
10 15.07 СЗ 2 35 км н/о +18.9 +4.7 39 +20 +20 прохладно 1011.2 1003.0
11 15.07 С 1 35 км н/о +18.6 +4.9 40 +20 +20 по сезону 1011.0 1002.7
12 15.07 ЮЗ 2 35 км 8/3 1500 м
[Cu Sc Ac und Cs]
+20.0 +7.6 45 +21 +29 комфорт 1010.7 1002.5
13 15.07 ЮЗ 2 35 км н/о +19.1 +5.8 42 +20 +20 по сезону 1010.7 1002.4
14 15.07 СЗ 2 35 км н/о +20.3 +6.2 40 +22 +22 комфорт 1010.4 1002.2
15 15.07 СЗ 2 35 км 6/3 1500 м
[Cu Sc Ac und Cs]
+20.6 +8.8 47 +22 +25 комфорт 1010.0 1001.8
16 15.07 ЮЗ 1 35 км н/о +20.7 +6.7 40 +23 +23 комфорт 1009.9 1001.7
17 15.07 З 1 35 км н/о +19.2 +7.5 47 +21 +21 комфорт 1009.8 1001.6
18 15.07 ЮЗ 1 24 км 9/8 1500 м
[Cb cap Ac und Cs]
+17.2 +14.8 86 +18 +18 по сезону 1009.8 1001.5 +14.8 +21.1
19 15.07 З 1 35 км н/о +16.7 +10.4 66 +18 +18 тепло 1010.0 1001.7
20 15.07 В 1 35 км н/о +14.6 +11.1 80 +15 +15 по сезону 1009.9 1001.5
21 15.07 В 1 35 км 5/5 1500 м
[Ac und Cs]
+13.1 +13.1 100 +13 +13 прохладно 1009.8 1001.4
22 15.07 штиль 0 35 км н/о +11.6 +10.6 94 +11 +11 по сезону 1009.6 1001.2
23 15.07 Ю 1 35 км н/о +12.3 +9.1 81 +12 +12 по сезону 1009.3 1000.9
00 16.07 ЮЗ 1 35 км 3/3
[Ac cuf Ci fib]
+11.9 +11.3 96 +12 +12 по сезону 1009.3 1000.8
01 16.07 Ю 1 35 км н/о +11.9 +8.3 79 +12 +12 прохладно 1008.8 1000.3
02 16.07 В 1 35 км н/о +12.4 +9.1 80 +12 +12 прохладно 1008.3 999.9
03 16.07 Ю 1 35 км 4/1
[Ac cuf]
+12.0 +11.2 95 +12 +12 прохладно 1008.4 1000.0
04 16.07 ЮВ 1 35 км н/о +14.2 +11.0 81 +15 +15 по сезону 1008.0 999.6
05 16.07 Ю 2 35 км н/о +17.1 +10.6 66 +17 +17 по сезону 1007.4 999.2
06 16.07 Ю 2 35 км 9/6 2000 м
[Ac und Cs]
+17.9 +11.2 65 +18 +21 по сезону 1007.3 999.0 +11.2 +18.4
07 16.07 Ю 1 35 км н/о +18.8 +11.6 63 +21 +21 комфорт 1007.1 998.9
08 16.07 ЮВ 2 35 км н/о +19.7 +10.5 55 +22 +22 комфорт 1006.9 998.7
09 16.07 ЮВ 2 35 км 10/8 1000 м
[St Ac lent Cs]
+20.5 +11.2 55 +23 +23 комфорт 1006.7 998.6
10 16.07 ЮВ 4 35 км н/о +19.8 +9.8 52 +21 +21 комфорт 1006.4 998.2
11 16.07 В 3 29 км н/о +14.9 +12.0 83 +14 +14 очень
холодно
1006.6 998.3 6
12 16.07 Ю 3 35 км гроза без осадков {ливн. осадки} 10/10 1500 м
[Cb cap Ac und Cs]
+17.5 +11.2 67 +18 +18 прохладно 1006.6 998.4 7
13 16.07 СЗ 1 29 км н/о +14.5 +13.6 94 +15 +15 холодно 1007.0 998.6 3
14 16.07 З 1 17 км н/о +14.9 +13.8 93 +15 +15 холодно 1007.2 998.9 1
15 16.07 З 1 35 км в посл. час ливневой дождь {гроза} 9/9 300 м
[Cb cap As trans Cs]
+15.2 +12.1 82 +16 +16 прохладно 1007.4 999.1 4
16 16.07 С 1 35 км н/о +15.5 +14.4 93 +16 +16 прохладно 1007.3 998.9
17 16.07 С 2 35 км н/о +15.1 +14.2 94 +15 +15 прохладно 1006.8 998.5
18 16.07 С 1 35 км {гроза, ливн. осадки} 9/4 100 м
[Cb cap Cs]
+14.7 +14.1 96 +15 +15 прохладно 1006.8 998.5 +14.1 +21.4
19 16.07 СВ 1 35 км н/о +13.7 +12.5 92 +14 +14 по сезону 1007.0 998.6
20 16.07 СЗ 1 35 км н/о +13.8 +13.3 97 +14 +14 по сезону 1007.3 998.9
21 16.07 СЗ 2 35 км 9/9 2000 м
[Ac und Cs]
+13.4 +13.2 99 +13 +13 прохладно 1006.7 998.3
22 16.07 штиль 0 3000 м н/о +12.7 +12.3 97 +12 +12 по сезону 1006.9 998.5
23 16.07 штиль 0 1600 м н/о +12.1 +11.9 99 +11 +11 по сезону 1007.0 998.6
00 17.07 штиль 0 500 м туман поземный 9/9
[Ac und Cc]
+11.2 +11.2 100 +10 +10 прохладно 1007.0 998.5
01 17.07 С 1 1000 м н/о +12.0 +11.9 99 +12 +12 прохладно 1006.8 998.4
02 17.07 С 1 600 м н/о +10.5 +10.4 99 +10 +10 холодно 1006.9 998.4
03 17.07 С 1 11 км туман местами 8/5
[Ac cuf Ci fib]
+11.0 +10.0 94 +11 +11 прохладно 1007.0 998.5
04 17.07 СВ 1 30 км н/о +13.0 +12.8 99 +13 +13 прохладно 1007.0 998.6
05 17.07 В 1 35 км н/о +14.0 +12.9 93 +14 +14 прохладно 1006.9 998.5
06 17.07 В 1 35 км 9/1
[Ac As Ci fib]
+16.7 +10.0 65 +18 +23 по сезону 1006.9 998.6 +10.0 +16.7
07 17.07 В 2 35 км н/о +18.7 +13.1 70 +20 +20 по сезону 1006.9 998.7
08 17.07 В 2 35 км н/о +19.5 +11.4 59 +21 +21 комфорт 1007.0 998.7
09 17.07 СВ 3 35 км 8/6 600 м
[Cu Sc As op Ci sp]
+20.2 +10.0 52 +22 +24 комфорт 1007.1 998.9
10 17.07 СВ 4 35 км н/о +19.6 +9.9 53 +21 +21 комфорт 1007.2 999.0
11 17.07 СВ 3 35 км н/о +19.3 +10.3 56 +21 +21 комфорт 1007.1 998.9
12 17.07 СВ 3 35 км 8/5 1000 м
[Cu Sc Ac trans Cs]
+20.5 +10.0 51 +23 +25 комфорт 1007.1 998.9
13 17.07 СВ 3 35 км н/о +20.1 +10.7 55 +22 +22 комфорт 1007.1 998.9
14 17.07 С 3 35 км н/о +20.2 +10.8 55 +22 +22 комфорт 1007.0 998.8
15 17.07 СВ 4 35 км 8/3 600 м
[Cu Sc Ac trans Ci ing]
+19.5 +11.0 58 +21 +22 комфорт 1007.1 998.9
16 17.07 С 3 35 км н/о +18.7 +12.3 66 +20 +21 тепло 1007.4 999.2 +12.9 +21.2
17 17.07 С 2 35 км н/о +17.8 +12.1 69 +18 +18 тепло 1007.7 999.5 +14.0 +21.2
18 17.07 35 км 9/8 600 м
[St As op Cs]
+17.0 +16.7 98 1007.8 999.5 +16.7 +21.2
19 17.07 С 2 35 км н/о +15.6 +12.7 83 +15 +15 по сезону 1008.0 999.7 +15.6 +21.2
20 17.07 СЗ 1 35 км ясно +14.6 +12.8 89 +15 +15 по сезону 1008.3 999.9 +14.6 +21.2
21 17.07 СЗ 1 35 км 9/9 1000 м
[St Ac lent Ci sp]
+14.1 +14.0 99 +14 +14 прохладно 1008.4 1000.0
22 17.07 С 1 35 км н/о +13.9 +13.0 94 +14 +14 тепло 1008.4 1000.0
23 17.07 СЗ 1 30 км н/о +13.6 +12.9 96 +14 +14 по сезону 1008.7 1000.3 +13.6 +21.2
00 18.07 СЗ 2 35 км 9/4 1000 м
[St Ac und]
+13.0 +13.0 100 +12 +12 по сезону 1008.4 1000.0
01 18.07 СЗ 2 30 км н/о +12.5 +11.9 96 +11 +11 прохладно 1008.5 1000.1
02 18.07 СЗ 2 30 км н/о +12.4 +12.0 97 +11 +11 прохладно 1008.3 999.9
03 18.07 СЗ 2 35 км 9/9 1500 м
[St Ac und Cs]
+13.1 +12.1 94 +12 +12 прохладно 1008.3 999.9
04 18.07 СЗ 2 35 км н/о +13.8 +12.4 91 +13 +13 прохладно 1008.3 999.9 +12.1 +18.7
05 18.07 СЗ 2 35 км н/о +14.2 +13.0 92 +14 +14 прохладно 1008.3 1000.0
06 18.07 С 3 35 км 9/3 300 м
[Frnb As trans Ci fib]
+16.6 +12.1 75 +16 +18 по сезону 1008.2 999.9 +12.1 +17.0
07 18.07 35 км н/о +17.6 +13.9 79 1008.0 999.7
08 18.07 н/о
09 18.07 С 2 35 км ливневой дождь 8/8 600 м
[Cb cap As op Cs]
+17.0 +12.1 73 +17 +17 прохладно 1007.8 999.5 2
10 18.07 С 4 35 км н/о +19.8 +12.2 62 +21 +21 комфорт 1007.6 999.4 0.1
11 18.07 СЗ 4-9
{9}
35 км {ливн. осадки} н/о +21.8 +11.3 51 +24 +28 комфорт 1007.1 999.0 +12.1 +21.8 2
12 18.07 СЗ 4 35 км {ливн. осадки} 8/3 1000 м
[Cu Sc Ac und]
+22.3 +12.1 52 +24 +27 комфорт 1007.1 999.0 0.1
13 18.07 С 4 35 км н/о +22.2 +10.4 47 +24 +24 комфорт 1007.1 999.0
14 18.07 С 5 35 км н/о +22.2 +10.0 46 +24 +24 комфорт 1007.3 999.2
15 18.07 С 4 35 км 9/3 1500 м
[Cu Sc Ac und Cs]
+21.2 +13.1 60 +23 +24 комфорт 1007.4 999.2
16 18.07 С 4 35 км н/о +21.6 +10.5 49 +23 +23 комфорт 1007.4 999.2
17 18.07 С 4 35 км н/о +21.1 +10.1 49 +23 +23 комфорт 1007.4 999.2
18 18.07 СЗ 2 35 км 9/3 1000 м
[St Ac lent Ci ing]
+20.5 +16.4 77 +22 +22 комфорт 1007.4 999.2 +16.4 +22.8
19 18.07 СЗ 2 35 км н/о +18.8 +10.4 58 +20 +20 тепло 1007.6 999.4
20 18.07 СЗ 2 35 км н/о +17.6 +11.1 66 +18 +18 тепло 1007.9 999.6
21 18.07 СЗ 2 35 км 6/1 1500 м
[St Ac und Cs]
+16.2 +16.2 100 +16 +16 по сезону 1008.1 999.8
22 18.07 СЗ 2 35 км н/о +15.4 +11.9 80 +15 +15 тепло 1008.2 999.8
23 18.07 СЗ 2 35 км н/о +14.3 +12.0 86 +14 +14 по сезону 1008.3 1000.0
00 19.07 СЗ 2 35 км 9/5 1000 м
[Ac lent Ci sp]
+13.9 +13.9 100 +13 +13 по сезону 1008.3 999.9
01 19.07 СЗ 1 35 км н/о +13.4 +11.9 91 +14 +14 по сезону 1008.3 999.9
02 19.07 З 2 35 км н/о +13.4 +11.9 91 +13 +13 по сезону 1008.2 999.8
03 19.07 СЗ 2 35 км 8/8
[Ac cuf]
+14.3 +13.1 92 +14 +14 по сезону 1008.4 1000.0
04 19.07 СЗ 2 35 км н/о +14.6 +12.4 87 +14 +14 прохладно 1008.4 1000.0
05 19.07 З 2 35 км н/о +14.7 +12.8 88 +14 +14 прохладно 1008.4 1000.0
06 19.07 СЗ 2 35 км в посл. час ливневой дождь 9/4 1000 м
[Cb cap Ac lent Ci ing]
+15.7 +13.1 85 +16 +16 по сезону 1008.4 1000.0 +13.1 +20.5
07 19.07 СЗ 3 35 км н/о +16.8 +13.6 81 +17 +17 прохладно 1008.5 1000.2
08 19.07 СЗ 3 35 км н/о +18.3 +13.6 74 +19 +19 по сезону 1008.4 1000.1
09 19.07 СЗ 4 35 км 9/4 600 м
[Cu Sc As op Cs]
+19.2 +13.1 68 +20 +22 тепло 1008.5 1000.2
10 19.07 СЗ 3 35 км н/о +18.1 +13.3 74 +18 +18 холодно 1008.9 1000.6
11 19.07 СЗ 1 21 км н/о +17.5 +14.6 83 +19 +19 прохладно 1009.3 1001.0
12 19.07 СЗ 2 35 км в посл. час ливневой дождь 9/9 1000 м
[Cb cap Ac trans Ci]
+17.9 +13.1 73 +18 +18 прохладно 1009.1 1000.9 1
13 19.07 СЗ 2 35 км н/о +19.2 +15.0 77 +21 +21 комфорт 1009.3 1001.1
14 19.07 СЗ 2 35 км н/о +19.2 +14.4 74 +21 +21 комфорт 1009.6 1001.4
15 19.07 СВ 1 35 км 9/3 1000 м
[Cu Sc Ac und]
+18.5 +14.3 77 +20 +22 по сезону 1009.8 1001.6
16 19.07 С 1 35 км н/о +18.6 +14.3 76 +20 +20 тепло 1010.1 1001.8
17 19.07 С 1 35 км н/о +18.4 +14.2 77 +20 +20 тепло 1010.3 1002.0
18 19.07 СЗ 1 35 км 9/3 1000 м
[Cb cap Ac lent]
+17.6 +15.7 89 +19 +19 по сезону 1010.5 1002.2 +15.7 +19.6
19 19.07 СЗ 1 35 км 9/0 2000 м
[]
+17.1 +13.9 81 +18 +18 тепло 1010.8 1002.5 +16.8 +19.6
20 19.07 З 1 35 км н/о +15.4 +13.3 87 +16 +16 по сезону 1011.1 1002.7
21 19.07 З 1 35 км 8/8
[Ac und Cc]
+15.6 +15.2 97 +16 +16 по сезону 1011.4 1003.0
22 19.07 З 1 35 км н/о +16.0 +13.4 85 +17 +17 тепло 1011.6 1003.2
23 19.07 З 1 35 км н/о +16.2 +13.9 86 +17 +17 тепло 1011.7 1003.4
00 20.07 З 2 35 км 9/9 2000 м
[Ac und Cs]
+15.9 +15.2 96 +16 +16 тепло 1011.8 1003.5
01 20.07 З 2 35 км н/о +14.8 +12.3 85 +14 +14 по сезону 1012.0 1003.6
02 20.07 З 2 35 км н/о +13.5 +11.8 89 +13 +13 прохладно 1012.3 1003.9
03 20.07 З 1 35 км 1/1
[]
+13.1 +12.9 99 +13 +14 прохладно 1012.8 1004.4
05 20.07 З 2 35 км н/о +16.1 +12.8 81 +16 +16 по сезону 1012.8 1004.4
06 20.07 СЗ 2 35 км 1/1
[]
+18.1 +12.9 72 +19 +25 тепло 1013.2 1004.9 +12.9 +18.3
07 20.07 СЗ 2 35 км н/о +19.6 +13.0 66 +22 +22 комфорт 1013.4 1005.1
08 20.07 З 3 35 км н/о +20.7 +13.4 63 +24 +24 комфорт 1013.5 1005.3
09 20.07 СЗ 3 35 км 8/8 1000 м
[Cu Sc Ac lent Cs]
+21.4 +12.9 58 +23 +25 комфорт 1014.0 1005.8
10 20.07 СЗ 3 35 км н/о +21.8 +11.9 53 +24 +24 комфорт 1014.2 1006.0
11 20.07 СЗ 2 35 км н/о +23.2 +12.3 50 +26 +26 жарко 1014.3 1006.1
12 20.07 С 2 35 км 8/8 1500 м
[St Ac und Cs]
+23.0 +12.9 53 +25 +27 комфорт 1014.7 1006.5
13 20.07 С 2 35 км н/о +24.2 +11.5 45 +26 +26 жарко 1014.8 1006.6
14 20.07 С 3 35 км н/о +23.9 +9.8 41 +25 +25 комфорт 1015.0 1006.8
15 20.07 СЗ 3 35 км 6/6 1500 м
[St Ac und Cs]
+24.4 +13.1 49 +25 +26 комфорт 1015.0 1006.9
16 20.07 С 3 35 км н/о +23.4 +10.5 44 +25 +25 комфорт 1015.3 1007.1
17 20.07 С 2 35 км н/о +22.9 +11.2 48 +25 +25 комфорт 1015.7 1007.5
18 20.07 СВ 1 17 км 1/1
[]
+21.2 +18.0 82 +23 +23 комфорт 1015.9 1007.7 +18.0 +24.9
19 20.07 В 1 28 км н/о +18.3 +12.6 69 +20 +20 тепло 1016.4 1008.1
20 20.07 В 1 5000 м н/о +16.3 +13.5 83 +17 +17 по сезону 1017.0 1008.6
21 20.07 В 1 35 км ясно +13.5 +13.5 100 +14 +14 прохладно 1017.5 1009.0
22 20.07 Ю 1 23 км н/о +13.7 +13.4 98 +14 +14 тепло 1017.8 1009.4
23 20.07 штиль 0 35 км н/о +14.1 +13.4 96 +14 +14 тепло 1018.1 1009.6

 

Местоположение метеостанции Тарту (Эстония): широта 58.30 долгота 26.73 высота над уровнем моря 68 м.

В архиве по умолчанию представлена погода в Тарту за последнюю неделю. Архивные данные за месяц целиком и за предыдущие месяцы, начиная с января 2011 года, Вы можете получить, выбрав интересующий диапазон дат из раскрывающегося списка и нажав кнопку "Ввод!".


*Определитесь, кто Вы:
робот инопланетянин человек

Внимание! Время в таблицах - всемирное. Для получения местного времени необходимо прибавить поправку, которая равна 2 ч.

Смотрите также архив погоды в соседних городах и на ближайших метеорологических станциях:

Погода в Выру (Эстония) (53 км)
Погода в Йыгеве (Эстония) (53 км)
Погода в Тиирикое (Эстония) (65 км)
Погода в Вильянди (Эстония) (66 км)
Погода в Валге (Эстония) (71 км)
Погода в Гдове (Псковская область, Россия) (80 км)
Погода в Руйиене (Латвия) (91 км)
Погода в Тюри (Эстония) (96 км)
Погода в Вяйке-Маарье (Эстония) (97 км)
Погода в Алуксне (Латвия) (98 км)

Пояснения к столбцам:

Ветер - указаны скорость ветра в м/с - средняя за 10 мин, порывы в срок и между сроками (в фигурных скобках) и направление, откуда дует ветер: С - северный, СВ - северо-восточный, В - восточный, ЮВ - юго-восточный, Ю - южный, ЮЗ - юго-западный, З - западный, СЗ - северо-западный.
Видимость - горизонтальная дальность видимости в метрах или километрах. При видимости от 1 до 10 км при отсутствии осадков обычно наблюдается дымка, при ухудшении видимости до 1 км и менее - туман. В сухую погоду видимость может ухудшаться дымом, пылью или мглою.
Явления - указаны атмосферные явления, наблюдавшиеся в срок или в последний час перед сроком; фигурными скобками обозначены явления, наблюдавшиеся между сроками (за 1-3 часа до срока); квадратными скобками обозначены град или гололедные отложения с указанием их диаметра в мм.
Облачность - указаны через наклонную черту общая и нижняя облачность в баллах и высота нижней границы облаков в метрах; квадратными скобками обозначены формы облаков: Ci - перистые, Cs - перисто-слоистые, Cc - перисто-кучевые, Ac - высококучевые, As - высокослоистые, Sc - слоисто-кучевые, Ns - слоисто-дождевые, Cu - кучевые, Cb - кучево-дождевые. Подробнее классификацию облаков см. в Атласе облаков (PDF).
T - Температура воздуха - температура, измеренная на высоте 2 м над землей.
Td - Температура точки росы - температура, при понижении до которой содержащийся в воздухе водяной пар достигнет насыщения.
f - Относительная влажность воздуха - влажноcть воздуха, измеренная на высоте 2 м над землей.
Te - Эффективная температура - температура, которую ощущает одетый по сезону человек в тени. Характеристика душности погоды. При расчете учитывается влияние влажности воздуха и скорости ветра на теплоощущения человека.
Tes - Эффективная температура на солнце - температура, которую ощущает человек, с поправкой на солнечный нагрев. Характеристика знойности погоды. Зависит от высоты солнца над горизонтом, облачности и скорости ветра. Ночью, в пасмурную погоду, а также при ветре 12 м/с и более поправка равна нулю.
P - Атмосферное давление - приведенное к уровню моря атмосферное давление.
Po - Атмосферное давление - измеренное на уровне метеостанции атмосферное давление.
Tmin - Минимальная температура - минимум температуры воздуха на высоте 2 м над землей.
Tmax - Максимальная температура - максимум температуры воздуха на высоте 2 м над землей.
R - Количество осадков - Количество выпавших осадков за период времени, мм. При наведении курсора мыши на число - период времени, за который выпало указанное количество осадков.
R24 - Количество осадков - Количество выпавших осадков за 24 часа, мм.
S - Снежный покров - Высота снежного покрова, см. При наведении курсора мыши на число - состояние снежного покрова и степень покрытия местности в баллах.